Location: Newark
(25.4800°N, 85.7200°E)
Time: 15:39:06
(UTC+00:00)

Vanguard 1 Rocket - Pass Details

Date: 24 August 2019
Orbit: 651 x 4225 km, 34.3° (Epoch: 20 September)

Event Time Altitude Azimuth Distance (km) Brightness Sun altitude
Rises 16:15:35 0° 212° (SSW) 4,885 - -42.6°
Reaches altitude 10° 16:20:22 10° 197° (SSW) 3,283 - -43.4°
Maximum altitude 16:25:31 20° 153° (SSE) 2,067 - -44.1°
Drops below altitude 10° 16:29:19 10° 106° (ESE) 2,325 - -44.7°
Sets 16:31:58 0° 88° (E) 3,069 - -45.1°
